Preview of NWS' New Version of Forecast
This preview is not operational and should not be used for support decisions.

Regional Weather Roundup (RWR)

Issued by National Weather Service (NWS)

                            
000
ASUS44 KMEG 201410
RWRTN 
TENNESSEE HOURLY STATE WEATHER ROUNDUP
NATIONAL WEATHER SERVICE MEMPHIS TN
900 AM CDT TUE AUG 20 2019

TNZ002-004-019-021-049-052-054-088>092-201500-
WEST TENNESSEE
  
CITY           SKY/WX    TMP DP  RH WIND       PRES   REMARKS
MEMPHIS INTL   FAIR      84  77  79 CALM      30.07R HX  94           
NWS MEMPHIS      N/A     84 N/A N/A MISG        N/A                   
JACKSON        FAIR      81  76  84 S3        30.10R                  
DYERSBURG      FAIR      83  77  82 SW3       30.09R HX  92           
SOMERVILLE     SUNNY     84  75  74 CALM      30.07R HX  92           
COVINGTON      SUNNY     82  77  83 CALM      30.07R HX  91           
UNION CITY     SUNNY     82  77  83 CALM      30.07R HX  91           
BOLIVAR        SUNNY     82  75  78 CALM      30.08R                  
PARIS          SUNNY     84  75  74 CALM      30.08S HX  92           
HUNTINGDON     SUNNY     82  77  83 CALM      30.08R HX  91           
LEXINGTON      SUNNY     81  73  78 S5        30.10R                  
SAVANNAH       SUNNY     81  75  83 CALM      30.09R                  
$$

TNZ008-025-027-028-033-062-065-066-201500-
NORTH MIDDLE TENNESSEE
  
CITY           SKY/WX    TMP DP  RH WIND       PRES   REMARKS
NASHVILLE      FAIR      83  71  67 SW6       30.11R                  
DICKSON        SUNNY     82  73  74 CALM      30.11R                  
PORTLAND       SUNNY     82  73  74 S8        30.10R                  
CLARKSVILLE    FAIR      83  75  77 W3        30.09R HX  90           
LEBANON        SUNNY     82  72  69 SW9       30.09R                  
SMYRNA         FAIR      81  72  74 SW5       30.12R                  
MURFREESBORO   SUNNY     81  72  74 VRB5      30.10R                  
COOKEVILLE     SUNNY     81  70  69 SW5       30.12R                  
LIVINGSTON     SUNNY     81  66  61 SW8G15    30.14R                  
GALLATIN       SUNNY     82  73  74 CALM      30.13R                  
CROSSVILLE     FAIR      77  66  68 SW5       30.17S                  
ROCKWOOD       SUNNY     77  66  69 VRB6      30.15S                  
$$

TNZ061-075-076-078-094-096-097-201500-
SOUTH MIDDLE TENNESSEE
  
CITY           SKY/WX    TMP DP  RH WIND       PRES   REMARKS
LAWRENCEBURG   SUNNY     81  73  78 CALM      30.11R                  
LEWISBURG      SUNNY     81  73  78 CALM      30.11R                  
FAYETTEVILLE   SUNNY     79  70  73 S7        30.12R                  
TULLAHOMA      SUNNY     81  70  69 SW6       30.11R                  
WINCHESTER     SUNNY     79  70  73 E5        30.11S                  
MCMINNVILLE    SUNNY     79  70  73 CALM      30.12R                  
COLUMBIA       SUNNY     79  77  94 W3        30.09R                  
SHELBYVILLE    SUNNY     81  70  69 S5        30.12R                  
$$

TNZ017-018-042-046-047-201500-
NORTHEAST TENNESSEE
  
CITY           SKY/WX    TMP DP  RH WIND       PRES   REMARKS
TRI CITIES     FAIR      76  67  73 SE3       30.17F                  
ELIZABETHTON   FAIR      77  66  69 VRB3      30.17F                  
GREENEVILLE    SUNNY     77  66  69 CALM      30.16F                  
$$

TNZ012-013-036-069-073-074-201500-
CENTRAL EAST TENNESSEE
  
CITY           SKY/WX    TMP DP  RH WIND       PRES   REMARKS
KNOXVILLE      FAIR      80  66  62 CALM      30.11F                  
OAK RIDGE      FAIR      80  68  66 W5        30.13F                  
DOWNTOWN KNOXV SUNNY     79  72  78 CALM      30.12F                  
GATLINBURG     SUNNY     79  66  65 VRB3      30.12F                  
MORRISTOWN     SUNNY     81  68  65 CALM      30.13F                  
JACKSBORO      CLOUDY    75  72  88 CALM      30.17R                  
$$

TNZ083-085-099-201500-
SOUTHEAST TENNESSEE
  
CITY           SKY/WX    TMP DP  RH WIND       PRES   REMARKS
CHATTANOOGA    FAIR      79  69  71 CALM      30.11F                  
DAYTON         MOSUNNY   81  70  69 VRB6      30.10F                  
$$

SKY/WX REPORTED AS FAIR MEANS FEW OR NO CLOUDS BELOW
12 THOUSAND FEET.